Погода на Станции Каменный Ключ

Россия / Кемеровская область (Кузбасс)     54°05′59″N   86°08′04″E
темп.,
°C
ветер,
м/с
пор.,
м/с
влажн.,
%
обл.,
%
осадки,
мм/ч
давл.,
гПа
погр.,
м
18 мая, вт
вт1801:00+11ююз2283100 0.0 101331
04:00+11ююз3118970 0.0 1011270
07:00+13ююз51491100 1.3 1008449
10:00+17юз71779100 0.5 1005811
13:00+23з8154845 0.5 10032141
16:00+22сз7114533 0.2 10042242
19:00+19с58545 0.3 10051326
22:00+12ссв228951 0.0 100614
19 мая, ср
ср1901:00+10св1297100 0.4 100650
04:00+10в1199100 0.4 100330
07:00+10с3597100 2.3 1003411
10:00+7с41097100 0.3 1004474
13:00+10с71072100 0.5 10041072
16:00+12с793994 0.0 10051668
19:00+11с584299 0.0 10071854
22:00+5с395969 0.0 1009350
20 мая, чт
чт2001:00+5с5953100 0.0 1009793
04:00+2с41162100 0.0 1010570
07:00+2с51058100 0.0 1011699
10:00+5с683617 0.0 10111967
13:00+7с6730100 0.0 10112748
16:00+6ссз6731100 0.0 10132569
19:00+6с573212 0.0 10152289
22:00+1сз386984 0.1 1018270
21 мая, пт
пт2101:00−1сз279775 0.3 1019299
04:00+1ссз2494100 0.9 1020605
07:00+1с358690 1.1 1023545
10:00+6ссз245946 0.0 10231106
13:00+9ссз2448100 0.3 10241817
16:00+11сз3534100 0.1 10232320
19:00+10юз3645100 0.1 10241684
22:00+5зюз256587 0.0 1026102
22 мая, сб
сб2201:00+4ююз51274100 0.0 1025371
04:00+4ююз61476100 0.4 1022772
07:00+3юз71790100 4.1 10211143
10:00+3юз81794100 1.4 1019773
13:00+5юз71587100 1.6 1019639
16:00+10юз6137180 0.0 1018468
19:00+15зюз497999 0.3 1017455
22:00+11з139731 1.0 1019105